When you browse on this site, cookies collect data to enhance your experience and personalize the content and advertising you see.
Visit our Privacy Policy to learn more. By continuing to use the site, you agree to this use of cookies and data.
  • En España
  • Lista de países
  • Para 7 días
  • Temperatura del agua
  • El tiempo en el mapa
  • Informadores
  • user-avatar
    Iniciar sesión

    Tiempo cada hora Perugia

    Hoy, 15 Noviembre, Viernes

    Tiempo Temperatura Precipitaciones Viento Presión Humedad
    00:00 +10°C° 0 mm 2 mps 720 mmHg 84%
    01:00 +10°C° 0 mm 2 mps 720 mmHg 86%
    02:00 +12°C° 0 mm 2 mps 720 mmHg 85%
    03:00 +12°C° 0 mm 2 mps 719 mmHg 85%
    04:00 +12°C° 0 mm 2 mps 719 mmHg 85%
    05:00 +11°C° 0 mm 3 mps 719 mmHg 86%
    06:00 +10°C° 0 mm 3 mps 719 mmHg 88%
    07:00 +10°C° 0 mm 3 mps 719 mmHg 88%
    08:00 +11°C° 0 mm 4 mps 719 mmHg 84%
    09:00 +13°C° 0 mm 5 mps 719 mmHg 80%
    10:00 +14°C° 0 mm 6 mps 720 mmHg 76%
    11:00 +14°C° 0.4 mm 7 mps 719 mmHg 74%
    12:00 +13°C° 0.4 mm 9 mps 719 mmHg 72%
    13:00 +14°C° 0.4 mm 10 mps 719 mmHg 70%
    14:00 +13°C° 1.4 mm 8 mps 719 mmHg 75%
    15:00 +12°C° 1.4 mm 7 mps 719 mmHg 81%
    16:00 +13°C° 1.4 mm 5 mps 718 mmHg 86%
    17:00 +12°C° 2.6 mm 5 mps 719 mmHg 88%
    18:00 +12°C° 2.6 mm 5 mps 719 mmHg 90%
    19:00 +10°C° 2.6 mm 5 mps 720 mmHg 92%
    20:00 +10°C° 0.7 mm 5 mps 720 mmHg 92%
    21:00 +11°C° 0.7 mm 4 mps 721 mmHg 92%
    22:00 +11°C° 0.7 mm 3 mps 722 mmHg 92%
    23:00 +10°C° 0.9 mm 4 mps 722 mmHg 91%

    Mañana, 16 Noviembre, Sábado

    Tiempo Temperatura Precipitaciones Viento Presión Humedad
    00:00 +10°C° 0.9 mm 4 mps 722 mmHg 91%
    01:00 +10°C° 0.9 mm 4 mps 723 mmHg 90%
    02:00 +8°C° 0.6 mm 4 mps 723 mmHg 90%
    03:00 +8°C° 0.6 mm 4 mps 723 mmHg 90%
    04:00 +9°C° 0.6 mm 3 mps 724 mmHg 90%
    05:00 +9°C° 0.1 mm 3 mps 724 mmHg 90%
    06:00 +8°C° 0.1 mm 2 mps 724 mmHg 90%
    07:00 +8°C° 0.1 mm 2 mps 725 mmHg 90%
    08:00 +9°C° 0 mm 2 mps 725 mmHg 85%
    09:00 +10°C° 0 mm 2 mps 725 mmHg 79%
    10:00 +11°C° 0 mm 1 mps 726 mmHg 74%
    11:00 +11°C° 0.3 mm 1 mps 726 mmHg 75%
    12:00 +11°C° 0.3 mm 1 mps 726 mmHg 76%
    13:00 +11°C° 0.3 mm 1 mps 725 mmHg 77%
    14:00 +11°C° 2 mm 1 mps 725 mmHg 82%
    15:00 +9°C° 2 mm 2 mps 724 mmHg 87%
    16:00 +8°C° 2 mm 3 mps 724 mmHg 91%
    17:00 +8°C° 1 mm 3 mps 723 mmHg 91%
    18:00 +8°C° 1 mm 3 mps 723 mmHg 91%
    19:00 +7°C° 1 mm 3 mps 723 mmHg 90%
    20:00 +8°C° 0 mm 3 mps 722 mmHg 91%
    21:00 +8°C° 0 mm 3 mps 722 mmHg 91%
    22:00 +8°C° 0 mm 3 mps 721 mmHg 91%
    23:00 +8°C° 0 mm 3 mps 720 mmHg 92%

    Pasado mañana, 17 Noviembre, Domingo

    Tiempo Temperatura Precipitaciones Viento Presión Humedad
    00:00 +8°C° 0 mm 2 mps 719 mmHg 93%
    01:00 +7°C° 0 mm 2 mps 719 mmHg 93%
    02:00 +8°C° 0.1 mm 2 mps 718 mmHg 93%
    03:00 +8°C° 0.1 mm 2 mps 717 mmHg 93%
    04:00 +8°C° 0.1 mm 2 mps 716 mmHg 93%
    05:00 +8°C° 2.4 mm 2 mps 716 mmHg 94%
    06:00 +8°C° 2.4 mm 2 mps 716 mmHg 95%
    07:00 +9°C° 2.4 mm 2 mps 715 mmHg 97%
    08:00 +10°C° 0.8 mm 2 mps 716 mmHg 93%
    09:00 +10°C° 0.8 mm 2 mps 716 mmHg 90%
    10:00 +11°C° 0.8 mm 3 mps 717 mmHg 87%
    11:00 +12°C° 0.2 mm 3 mps 717 mmHg 83%
    12:00 +12°C° 0.2 mm 4 mps 717 mmHg 79%
    13:00 +13°C° 0.2 mm 5 mps 717 mmHg 75%
    14:00 +11°C° 0.8 mm 4 mps 718 mmHg 79%
    15:00 +8°C° 0.8 mm 4 mps 719 mmHg 82%
    16:00 +8°C° 0.8 mm 3 mps 719 mmHg 85%
    17:00 +7°C° 0 mm 3 mps 720 mmHg 87%
    18:00 +7°C° 0 mm 3 mps 720 mmHg 89%
    19:00 +6°C° 0 mm 2 mps 721 mmHg 91%
    20:00 +6°C° 0 mm 2 mps 721 mmHg 91%
    21:00 +6°C° 0 mm 2 mps 722 mmHg 92%
    22:00 +6°C° 0 mm 2 mps 722 mmHg 92%
    23:00 +6°C° 0.1 mm 2 mps 722 mmHg 93%

    18 Noviembre, Lunes

    Tiempo Temperatura Precipitaciones Viento Presión Humedad
    00:00 +6°C° 0.1 mm 2 mps 722 mmHg 93%
    01:00 +6°C° 0.1 mm 2 mps 722 mmHg 94%
    02:00 +6°C° 0.2 mm 2 mps 722 mmHg 94%
    03:00 +6°C° 0.2 mm 2 mps 722 mmHg 94%
    04:00 +6°C° 0.2 mm 2 mps 723 mmHg 94%
    05:00 +6°C° 0.2 mm 2 mps 723 mmHg 94%
    06:00 +6°C° 0.2 mm 2 mps 723 mmHg 94%
    07:00 +5°C° 0.2 mm 2 mps 723 mmHg 94%
    08:00 +7°C° 0 mm 3 mps 723 mmHg 90%
    09:00 +8°C° 0 mm 3 mps 724 mmHg 85%
    10:00 +8°C° 0 mm 4 mps 724 mmHg 81%
    11:00 +9°C° 0.1 mm 5 mps 725 mmHg 77%
    12:00 +10°C° 0.1 mm 6 mps 725 mmHg 73%
    13:00 +11°C° 0.1 mm 6 mps 725 mmHg 69%
    14:00 +10°C° 0 mm 5 mps 725 mmHg 72%
    15:00 +11°C° 0 mm 4 mps 725 mmHg 75%
    16:00 +10°C° 0 mm 3 mps 725 mmHg 78%
    17:00 +9°C° 0.1 mm 2 mps 725 mmHg 80%
    18:00 +9°C° 0.1 mm 2 mps 725 mmHg 83%
    19:00 +9°C° 0.1 mm 1 mps 725 mmHg 86%
    20:00 +9°C° 1.2 mm 1 mps 725 mmHg 88%
    21:00 +9°C° 1.2 mm 1 mps 725 mmHg 91%
    22:00 +9°C° 1.2 mm 1 mps 725 mmHg 93%
    23:00 +9°C° 0.7 mm 1 mps 725 mmHg 93%

    19 Noviembre, Martes

    Tiempo Temperatura Precipitaciones Viento Presión Humedad
    00:00 +9°C° 0.7 mm 1 mps 725 mmHg 93%
    01:00 +9°C° 0.7 mm 1 mps 724 mmHg 93%
    02:00 +8°C° 0.6 mm 2 mps 724 mmHg 92%
    03:00 +8°C° 0.6 mm 2 mps 723 mmHg 92%
    04:00 +8°C° 0.6 mm 2 mps 723 mmHg 91%
    05:00 +8°C° 3.9 mm 2 mps 722 mmHg 93%
    06:00 +8°C° 3.9 mm 2 mps 722 mmHg 94%
    07:00 +8°C° 3.9 mm 2 mps 722 mmHg 95%
    08:00 +8°C° 3.4 mm 2 mps 722 mmHg 95%
    09:00 +9°C° 3.4 mm 1 mps 722 mmHg 95%
    10:00 +10°C° 3.4 mm 1 mps 722 mmHg 96%
    11:00 +10°C° 2.1 mm 1 mps 723 mmHg 95%
    12:00 +10°C° 2.1 mm 1 mps 723 mmHg 95%
    13:00 +10°C° 2.1 mm 1 mps 723 mmHg 94%
    14:00 +10°C° 1.1 mm 1 mps 723 mmHg 93%
    15:00 +9°C° 1.1 mm 2 mps 724 mmHg 93%
    16:00 +9°C° 1.1 mm 2 mps 724 mmHg 92%
    17:00 +9°C° 0 mm 1 mps 724 mmHg 93%
    18:00 +8°C° 0 mm 1 mps 725 mmHg 93%
    19:00 +8°C° 0 mm 1 mps 725 mmHg 94%
    20:00 +7°C° 0 mm 1 mps 726 mmHg 94%
    21:00 +7°C° 0 mm 1 mps 726 mmHg 94%
    22:00 +6°C° 0 mm 1 mps 727 mmHg 93%
    23:00 +6°C° 0 mm 1 mps 727 mmHg 93%

    20 Noviembre, Miércoles

    Tiempo Temperatura Precipitaciones Viento Presión Humedad
    00:00 +6°C° 0 mm 1 mps 727 mmHg 92%
    01:00 +6°C° 0 mm 1 mps 727 mmHg 91%
    02:00 +6°C° 0 mm 1 mps 727 mmHg 90%
    03:00 +6°C° 0 mm 1 mps 727 mmHg 90%
    04:00 +5°C° 0 mm 1 mps 727 mmHg 89%
    05:00 +5°C° 0 mm 1 mps 728 mmHg 89%
    06:00 +5°C° 0 mm 1 mps 728 mmHg 89%
    07:00 +4°C° 0 mm 0 mps 728 mmHg 88%
    08:00 +7°C° 0 mm 1 mps 729 mmHg 84%
    09:00 +8°C° 0 mm 1 mps 729 mmHg 79%
    10:00 +10°C° 0 mm 1 mps 730 mmHg 74%
    11:00 +11°C° 0 mm 1 mps 730 mmHg 72%
    12:00 +10°C° 0 mm 2 mps 729 mmHg 70%
    13:00 +12°C° 0 mm 2 mps 729 mmHg 68%
    14:00 +10°C° 0 mm 2 mps 729 mmHg 71%
    15:00 +11°C° 0 mm 1 mps 729 mmHg 75%
    16:00 +10°C° 0 mm 1 mps 729 mmHg 78%
    17:00 +10°C° 0 mm 1 mps 729 mmHg 80%
    18:00 +9°C° 0 mm 1 mps 729 mmHg 82%
    19:00 +9°C° 0 mm 1 mps 729 mmHg 83%
    20:00 +9°C° 0 mm 1 mps 729 mmHg 84%
    21:00 +8°C° 0 mm 1 mps 729 mmHg 84%
    22:00 +8°C° 0 mm 1 mps 729 mmHg 85%
    23:00 +8°C° 0 mm 1 mps 729 mmHg 85%
    Mostrar más